Location: Alulod
(14.2076°N, 120.8898°E)
Time: 13:48:53
(UTC+00:00)

USA 238 DEB - Pass Details

Date: 23 March 2026
Orbit: 883 x 1328 km, 63.4° (Epoch: 10 January)

Event Time Altitude Azimuth Distance (km) Brightness Sun altitude
Exits shadow 19:29:50 54° 8° (N) 1,548 4.4 -36.5°
Maximum altitude 19:31:41 69° 65° (ENE) 1,393 4.2 -36.1°
Drops below altitude 10° 19:39:53 10° 148° (SSE) 3,346 6.5 -34.1°
Sets 19:42:44 0° 150° (SSE) 4,301 7.1 -33.4°
